contact:dominique.lefevre@mio.osupytheas.fr, maurice.libes@osupytheas.fr, didier.mallarino@osupytheas.fr
Project:EMSO http://www.emso-fr.org/EMSO-France
Depth: 2436.0 m
Title:EMSO Ligure Ouest : Data MII capteur AQUADOPP
Date,Latitude,Longitude,X_East,Y_North,Z_Up,Amplitude_X,Amplitude_Y,Amplitude_Z,Batterie,SoundSpeed,Heading,Pitch,Roll,Pressure,TIS,Speed,Direction
, degrees North, degrees East, m.s-1, m.s-1,m.s-1, 1, 1, 1, Volt, m.s-1, degree, degree, degree, dbar, degree_C, m.s-1, degree
2022-03-05T00:04:03,42.805,6.029,0.021,-0.013,-0.009,103.0,103.0,101.0,13.4,1505.2,328.4,-0.8,1.8,2470.761,13.28,0.024,121.8
2022-03-05T00:07:03,42.805,6.029,0.024,0.0,-0.01,103.0,102.0,101.0,13.4,1505.2,328.1,-0.8,1.8,2470.676,13.28,0.024,90.0
2022-03-05T00:10:03,42.805,6.029,0.031,-0.007,-0.022,102.0,102.0,101.0,13.4,1505.2,329.0,-0.8,1.8,2470.689,13.28,0.031,102.7
2022-03-05T00:13:03,42.805,6.029,0.033,-0.022,-0.024,103.0,100.0,102.0,13.4,1505.2,326.1,-0.8,1.9,2470.694,13.28,0.039,123.7
2022-03-05T00:16:03,42.805,6.029,0.035,-0.01,-0.014,103.0,103.0,101.0,13.3,1505.2,325.7,-0.8,1.8,2470.715,13.28,0.036,105.9
2022-03-05T00:19:03,42.805,6.029,0.038,-0.021,-0.013,102.0,103.0,101.0,13.4,1505.2,325.4,-0.7,1.8,2470.684,13.28,0.043,118.9
2022-03-05T00:22:03,42.805,6.029,0.056,-0.027,-0.005,102.0,102.0,101.0,13.4,1505.2,328.0,-0.7,1.8,2470.69,13.28,0.062,115.7
2022-03-05T00:25:03,42.805,6.029,0.027,-0.013,-0.011,102.0,103.0,101.0,13.4,1505.2,325.0,-0.8,1.8,2470.669,13.28,0.029,115.7
2022-03-05T00:28:03,42.805,6.029,0.047,-0.017,0.004,101.0,103.0,101.0,13.3,1505.2,331.4,-0.7,1.8,2470.691,13.28,0.049,109.9
2022-03-05T00:31:03,42.805,6.029,0.044,-0.005,0.016,102.0,103.0,101.0,13.3,1505.2,327.1,-0.7,1.8,2470.724,13.28,0.044,96.5
2022-03-05T00:34:03,42.805,6.029,0.055,-0.011,-0.02,102.0,104.0,102.0,13.4,1505.2,328.5,-0.8,1.8,2470.669,13.28,0.056,101.3
2022-03-05T00:37:03,42.805,6.029,0.037,-0.03,-0.005,101.0,103.0,101.0,13.4,1505.2,329.1,-0.8,1.8,2470.661,13.28,0.047,129.0
2022-03-05T00:40:03,42.805,6.029,0.039,-0.014,-0.017,101.0,105.0,102.0,13.4,1505.2,330.3,-0.7,1.8,2470.692,13.28,0.041,109.7
2022-03-05T00:43:03,42.805,6.029,0.02,-0.008,-0.017,103.0,104.0,101.0,13.3,1505.2,329.5,-0.8,1.8,2470.659,13.28,0.021,111.8
2022-03-05T00:46:03,42.805,6.029,0.023,-0.022,-0.023,104.0,100.0,101.0,13.4,1505.2,325.6,-0.7,1.8,2470.631,13.28,0.031,133.7
2022-03-05T00:49:03,42.805,6.029,0.036,0.0,-0.003,102.0,103.0,100.0,13.3,1505.2,323.7,-0.8,1.8,2470.656,13.28,0.036,90.0
2022-03-05T00:52:03,42.805,6.029,0.027,-0.005,-0.005,101.0,103.0,101.0,13.4,1505.2,325.3,-0.8,1.8,2470.675,13.28,0.027,100.5
2022-03-05T00:55:03,42.805,6.029,0.047,-0.01,0.025,102.0,101.0,101.0,13.4,1505.2,325.9,-0.7,1.8,2470.664,13.28,0.048,102.0
2022-03-05T00:58:03,42.805,6.029,0.042,-0.033,-0.017,103.0,103.0,102.0,13.4,1505.2,326.3,-0.8,1.8,2470.67,13.28,0.053,128.2
2022-03-05T01:04:03,42.805,6.029,0.009,-0.03,-0.046,102.0,103.0,101.0,13.3,1505.2,325.6,-0.7,1.8,2470.708,13.28,0.031,163.3
2022-03-05T01:07:03,42.805,6.029,0.028,-0.004,0.02,103.0,102.0,102.0,13.4,1505.2,332.1,-0.7,1.8,2470.693,13.28,0.028,98.1
2022-03-05T01:10:03,42.805,6.029,0.036,-0.005,-0.008,102.0,104.0,101.0,13.3,1505.2,332.0,-0.8,1.8,2470.646,13.28,0.036,97.9
2022-03-05T01:13:03,42.805,6.029,0.044,-0.018,-0.012,102.0,104.0,101.0,13.4,1505.2,329.6,-0.7,1.8,2470.646,13.28,0.047,112.2
2022-03-05T01:16:03,42.805,6.029,0.044,-0.003,-0.015,102.0,103.0,101.0,13.4,1505.2,326.4,-0.8,1.8,2470.665,13.28,0.044,93.9
2022-03-05T01:19:03,42.805,6.029,0.053,-0.003,0.011,102.0,103.0,102.0,13.4,1505.2,331.0,-0.8,1.8,2470.625,13.28,0.053,93.2
2022-03-05T01:22:03,42.805,6.029,0.05,-0.015,-0.015,104.0,103.0,100.0,13.3,1505.2,326.0,-0.7,1.8,2470.656,13.28,0.052,106.7
2022-03-05T01:25:03,42.805,6.029,0.038,-0.025,-0.005,103.0,104.0,101.0,13.4,1505.2,326.4,-0.7,1.8,2470.656,13.28,0.045,123.3
2022-03-05T01:28:03,42.805,6.029,0.026,-0.002,0.001,103.0,102.0,100.0,13.3,1505.2,327.1,-0.7,1.8,2470.622,13.28,0.026,94.4
2022-03-05T01:31:03,42.805,6.029,0.022,-0.028,-0.036,103.0,103.0,100.0,13.4,1505.2,329.6,-0.8,1.8,2470.627,13.28,0.035,141.8
2022-03-05T01:34:03,42.805,6.029,0.046,-0.021,0.016,102.0,104.0,101.0,13.4,1505.2,326.6,-0.8,1.8,2470.617,13.28,0.05,114.5
2022-03-05T01:37:03,42.805,6.029,0.053,-0.014,-0.02,103.0,103.0,101.0,13.3,1505.2,326.8,-0.7,1.8,2470.633,13.28,0.054,104.8
2022-03-05T01:40:03,42.805,6.029,0.022,-0.011,-0.007,102.0,103.0,101.0,13.3,1505.2,326.5,-0.7,1.8,2470.618,13.28,0.024,116.6
2022-03-05T01:43:03,42.805,6.029,0.044,-0.012,-0.006,102.0,103.0,101.0,13.3,1505.2,323.8,-0.8,1.8,2470.618,13.28,0.045,105.3
2022-03-05T01:46:03,42.805,6.029,0.034,-0.02,0.005,103.0,102.0,100.0,13.4,1505.2,326.3,-0.8,1.8,2470.625,13.28,0.039,120.5
2022-03-05T01:49:03,42.805,6.029,0.038,-0.014,0.01,102.0,103.0,101.0,13.4,1505.2,326.3,-0.8,1.8,2470.618,13.28,0.04,110.2
2022-03-05T01:52:03,42.805,6.029,0.038,-0.008,0.014,102.0,101.0,102.0,13.4,1505.2,328.7,-0.7,1.8,2470.623,13.28,0.038,101.9
2022-03-05T01:55:03,42.805,6.029,0.043,-0.018,-0.009,102.0,104.0,101.0,13.4,1505.2,331.8,-0.8,1.8,2470.629,13.28,0.046,112.7
2022-03-05T01:58:03,42.805,6.029,0.047,0.002,-0.012,103.0,103.0,100.0,13.3,1505.2,326.0,-0.8,1.8,2470.639,13.28,0.047,87.6
2022-03-05T02:04:03,42.805,6.029,0.039,-0.009,-0.003,102.0,102.0,101.0,13.4,1505.2,324.0,-0.7,1.8,2470.668,13.28,0.04,103.0
2022-03-05T02:07:03,42.805,6.029,0.03,-0.009,-0.003,103.0,104.0,101.0,13.4,1505.2,328.2,-0.8,1.8,2470.621,13.28,0.031,106.7
2022-03-05T02:10:03,42.805,6.029,0.035,-0.028,-0.02,102.0,103.0,101.0,13.3,1505.2,327.6,-0.8,1.8,2470.624,13.28,0.044,128.7
2022-03-05T02:13:03,42.805,6.029,0.045,-0.013,0.019,103.0,103.0,101.0,13.4,1505.2,326.1,-0.8,1.8,2470.624,13.28,0.046,106.1
2022-03-05T02:16:03,42.805,6.029,0.036,-0.014,-0.015,103.0,103.0,100.0,13.4,1505.2,329.4,-0.8,1.8,2470.639,13.28,0.038,111.2
2022-03-05T02:19:03,42.805,6.029,0.023,-0.015,-0.043,102.0,103.0,101.0,13.3,1505.2,328.7,-0.8,1.8,2470.659,13.28,0.027,123.1
2022-03-05T02:22:03,42.805,6.029,0.038,-0.017,-0.004,102.0,102.0,101.0,13.4,1505.2,327.0,-0.8,1.8,2470.624,13.28,0.041,114.1
2022-03-05T02:25:03,42.805,6.029,0.051,-0.005,0.007,102.0,102.0,101.0,13.3,1505.2,326.0,-0.8,1.8,2470.608,13.28,0.051,95.6
2022-03-05T02:28:03,42.805,6.029,0.014,-0.009,0.0,102.0,103.0,100.0,13.4,1505.2,329.4,-0.8,1.8,2470.637,13.28,0.016,122.7
2022-03-05T02:31:03,42.805,6.029,0.022,-0.019,-0.036,102.0,103.0,101.0,13.3,1505.2,323.0,-0.7,1.8,2470.61,13.28,0.029,130.8
2022-03-05T02:34:03,42.805,6.029,0.016,-0.004,-0.03,102.0,103.0,102.0,13.4,1505.2,328.9,-0.8,1.8,2470.621,13.28,0.016,104.0
2022-03-05T02:37:03,42.805,6.029,0.062,-0.026,-0.008,102.0,102.0,101.0,13.4,1505.2,328.4,-0.8,1.8,2470.628,13.28,0.067,112.7
2022-03-05T02:40:03,42.805,6.029,0.044,-0.006,0.02,102.0,103.0,101.0,13.4,1505.2,328.1,-0.8,1.8,2470.622,13.28,0.044,97.8
2022-03-05T02:43:03,42.805,6.029,0.048,-0.015,-0.004,103.0,102.0,102.0,13.4,1505.2,329.5,-0.8,1.8,2470.639,13.28,0.05,107.4
2022-03-05T02:46:03,42.805,6.029,0.052,-0.02,0.014,102.0,104.0,101.0,13.4,1505.2,330.6,-0.8,1.8,2470.599,13.28,0.055,111.0
2022-03-05T02:49:03,42.805,6.029,0.059,-0.004,-0.005,102.0,103.0,101.0,13.4,1505.2,324.7,-0.8,1.8,2470.617,13.28,0.059,93.9
2022-03-05T02:52:03,42.805,6.029,0.034,-0.006,-0.012,102.0,102.0,102.0,13.4,1505.2,330.0,-0.8,1.8,2470.55,13.28,0.034,100.0
2022-03-05T02:55:03,42.805,6.029,0.034,-0.013,0.001,103.0,102.0,101.0,13.4,1505.2,326.7,-0.8,1.8,2470.615,13.28,0.036,110.9
2022-03-05T02:58:03,42.805,6.029,0.042,-0.019,-0.026,102.0,103.0,101.0,13.3,1505.2,326.9,-0.8,1.8,2470.599,13.28,0.046,114.3
2022-03-05T03:04:03,42.805,6.029,0.032,-0.001,0.007,103.0,102.0,100.0,13.4,1505.2,326.3,-0.8,1.9,2470.64,13.28,0.032,91.8
2022-03-05T03:07:03,42.805,6.029,0.045,-0.014,-0.006,101.0,103.0,102.0,13.4,1505.2,328.8,-0.8,1.8,2470.595,13.28,0.047,107.3
2022-03-05T03:10:03,42.805,6.029,0.047,0.01,-0.002,103.0,102.0,100.0,13.3,1505.2,328.9,-0.7,1.8,2470.636,13.28,0.048,78.0
2022-03-05T03:13:03,42.805,6.029,0.035,-0.023,-0.023,102.0,103.0,100.0,13.3,1505.2,326.2,-0.7,1.8,2470.632,13.28,0.041,123.3
2022-03-05T03:16:03,42.805,6.029,0.045,-0.022,0.009,103.0,104.0,100.0,13.4,1505.2,325.6,-0.8,1.8,2470.641,13.28,0.05,116.1
2022-03-05T03:19:03,42.805,6.029,0.05,-0.023,-0.025,102.0,103.0,101.0,13.4,1505.2,331.2,-0.7,1.8,2470.621,13.28,0.055,114.7
2022-03-05T03:22:03,42.805,6.029,0.024,0.019,0.02,101.0,103.0,102.0,13.4,1505.2,324.9,-0.7,1.8,2470.627,13.28,0.03,51.6
2022-03-05T03:25:03,42.805,6.029,0.058,-0.011,0.031,102.0,103.0,102.0,13.4,1505.2,326.7,-0.8,1.8,2470.625,13.28,0.059,100.7
2022-03-05T03:28:03,42.805,6.029,0.053,-0.012,0.015,102.0,102.0,101.0,13.4,1505.2,324.7,-0.8,1.8,2470.61,13.28,0.054,102.8
2022-03-05T03:31:03,42.805,6.029,0.036,-0.021,-0.014,102.0,103.0,101.0,13.4,1505.2,330.3,-0.8,1.8,2470.625,13.28,0.041,120.3
2022-03-05T03:34:03,42.805,6.029,0.042,-0.021,0.012,102.0,104.0,100.0,13.4,1505.2,331.6,-0.7,1.9,2470.615,13.28,0.046,116.6
2022-03-05T03:37:03,42.805,6.029,0.055,-0.011,0.008,102.0,103.0,101.0,13.4,1505.2,325.5,-0.8,1.8,2470.587,13.28,0.056,101.3
2022-03-05T03:40:03,42.805,6.029,0.038,-0.008,-0.01,102.0,102.0,100.0,13.4,1505.2,323.3,-0.7,1.8,2470.603,13.28,0.038,101.9
2022-03-05T03:43:03,42.805,6.029,0.046,-0.003,0.001,102.0,103.0,100.0,13.4,1505.2,329.8,-0.8,1.8,2470.588,13.28,0.046,93.7
2022-03-05T03:46:03,42.805,6.029,0.023,-0.015,-0.013,102.0,103.0,101.0,13.4,1505.2,325.8,-0.8,1.8,2470.594,13.28,0.027,123.1
2022-03-05T03:49:03,42.805,6.029,0.027,-0.009,-0.017,100.0,104.0,102.0,13.4,1505.2,326.3,-0.7,1.8,2470.612,13.28,0.028,108.4
2022-03-05T03:52:03,42.805,6.029,0.02,-0.011,-0.011,103.0,103.0,100.0,13.3,1505.2,324.0,-0.7,1.8,2470.588,13.28,0.022,118.8
2022-03-05T03:55:03,42.805,6.029,0.053,-0.017,0.009,102.0,102.0,101.0,13.4,1505.2,331.7,-0.8,1.8,2470.603,13.28,0.055,107.8
2022-03-05T03:58:03,42.805,6.029,0.052,-0.01,-0.006,103.0,103.0,101.0,13.4,1505.2,329.9,-0.8,1.8,2470.581,13.28,0.052,100.9
2022-03-05T04:04:03,42.805,6.029,0.019,-0.022,-0.039,101.0,104.0,101.0,13.4,1505.2,326.9,-0.8,1.8,2470.62,13.28,0.029,139.2
2022-03-05T04:07:03,42.805,6.029,0.04,-0.029,-0.024,102.0,103.0,101.0,13.4,1505.2,331.0,-0.8,1.8,2470.607,13.28,0.049,125.9
2022-03-05T04:10:03,42.805,6.029,0.034,-0.003,0.004,102.0,102.0,101.0,13.3,1505.2,325.0,-0.8,1.8,2470.648,13.28,0.034,95.0
2022-03-05T04:13:03,42.805,6.029,0.03,-0.009,0.002,100.0,105.0,102.0,13.3,1505.2,324.6,-0.8,1.8,2470.653,13.28,0.031,106.7
2022-03-05T04:16:03,42.805,6.029,0.031,-0.006,-0.003,103.0,103.0,101.0,13.4,1505.2,325.7,-0.8,1.8,2470.618,13.28,0.031,101.0
2022-03-05T04:19:03,42.805,6.029,0.062,0.0,0.001,102.0,103.0,101.0,13.4,1505.2,328.0,-0.7,1.8,2470.632,13.28,0.061,90.0
2022-03-05T04:22:03,42.805,6.029,0.038,-0.019,0.018,104.0,103.0,101.0,13.3,1505.2,328.9,-0.8,1.8,2470.614,13.28,0.042,116.6
2022-03-05T04:25:03,42.805,6.029,0.045,-0.009,0.002,102.0,103.0,101.0,13.3,1505.2,327.9,-0.7,1.8,2470.604,13.28,0.045,101.3
2022-03-05T04:28:03,42.805,6.029,0.04,-0.015,-0.008,102.0,103.0,102.0,13.4,1505.2,323.3,-0.8,1.8,2470.625,13.28,0.042,110.6
2022-03-05T04:31:03,42.805,6.029,0.036,-0.015,-0.013,102.0,103.0,101.0,13.3,1505.2,326.2,-0.8,1.8,2470.608,13.28,0.039,112.6
2022-03-05T04:34:03,42.805,6.029,0.023,-0.004,-0.005,102.0,103.0,102.0,13.3,1505.2,326.1,-0.8,1.9,2470.622,13.28,0.023,99.9
2022-03-05T04:37:03,42.805,6.029,0.023,-0.025,-0.026,103.0,103.0,100.0,13.4,1505.2,326.0,-0.7,1.8,2470.603,13.28,0.033,137.4
2022-03-05T04:40:03,42.805,6.029,0.031,-0.017,-0.04,103.0,101.0,102.0,13.4,1505.2,324.6,-0.7,1.8,2470.565,13.28,0.035,118.7
2022-03-05T04:43:03,42.805,6.029,0.014,-0.006,-0.017,102.0,103.0,102.0,13.4,1505.2,325.2,-0.8,1.8,2470.644,13.28,0.015,113.2
2022-03-05T04:46:03,42.805,6.029,0.021,-0.015,0.005,102.0,103.0,101.0,13.3,1505.2,327.8,-0.8,1.8,2470.628,13.28,0.025,125.5
2022-03-05T04:49:03,42.805,6.029,0.025,-0.02,-0.017,103.0,106.0,101.0,13.4,1505.2,330.3,-0.8,1.9,2470.598,13.28,0.032,128.7
2022-03-05T04:52:03,42.805,6.029,0.043,-0.027,-0.016,103.0,102.0,101.0,13.4,1505.2,330.4,-0.8,1.8,2470.617,13.28,0.05,122.1
2022-03-05T04:55:03,42.805,6.029,0.036,-0.033,-0.018,103.0,103.0,101.0,13.4,1505.2,327.5,-0.7,1.8,2470.609,13.28,0.048,132.5
2022-03-05T04:58:03,42.805,6.029,0.056,-0.027,-0.04,102.0,102.0,102.0,13.3,1505.2,326.4,-0.7,1.8,2470.663,13.28,0.062,115.7
2022-03-05T05:04:03,42.805,6.029,0.032,-0.008,-0.021,102.0,103.0,102.0,13.4,1505.2,326.5,-0.8,1.8,2470.669,13.28,0.032,104.0
2022-03-05T05:07:03,42.805,6.029,0.027,-0.024,-0.019,103.0,103.0,101.0,13.4,1505.2,325.9,-0.8,1.8,2470.653,13.28,0.036,131.6
2022-03-05T05:10:03,42.805,6.029,0.023,-0.011,-0.008,103.0,103.0,101.0,13.3,1505.2,328.0,-0.8,1.8,2470.641,13.28,0.025,115.6
2022-03-05T05:13:03,42.805,6.029,0.025,-0.003,0.0,103.0,103.0,102.0,13.4,1505.2,323.9,-0.7,1.8,2470.666,13.28,0.025,96.8
2022-03-05T05:16:03,42.805,6.029,0.029,0.007,0.0,102.0,102.0,102.0,13.4,1505.2,329.2,-0.8,1.9,2470.631,13.28,0.029,76.4
2022-03-05T05:19:03,42.805,6.029,0.006,0.007,-0.006,102.0,102.0,101.0,13.4,1505.2,326.6,-0.7,1.8,2470.612,13.28,0.009,40.6
2022-03-05T05:22:03,42.805,6.029,0.033,-0.012,-0.005,103.0,103.0,101.0,13.4,1505.2,323.9,-0.8,1.8,2470.663,13.28,0.035,110.0
2022-03-05T05:25:03,42.805,6.029,0.039,-0.022,0.018,103.0,104.0,101.0,13.4,1505.2,329.7,-0.8,1.8,2470.674,13.28,0.044,119.4
2022-03-05T05:28:03,42.805,6.029,0.024,-0.002,0.004,103.0,102.0,102.0,13.4,1505.2,329.6,-0.8,1.8,2470.669,13.28,0.024,94.8
2022-03-05T05:31:03,42.805,6.029,0.021,-0.006,-0.001,104.0,101.0,102.0,13.4,1505.2,328.4,-0.8,1.8,2470.643,13.28,0.021,105.9
2022-03-05T05:34:03,42.805,6.029,0.013,-0.013,0.021,104.0,101.0,101.0,13.4,1505.2,325.7,-0.8,1.9,2470.634,13.28,0.018,135.0
2022-03-05T05:37:03,42.805,6.029,0.021,0.0,0.003,104.0,104.0,102.0,13.4,1505.2,328.2,-0.7,1.8,2470.698,13.28,0.021,90.0
2022-03-05T05:40:03,42.805,6.029,0.013,-0.005,-0.011,102.0,104.0,102.0,13.4,1505.2,325.6,-0.7,1.8,2470.694,13.28,0.013,111.0
2022-03-05T05:43:03,42.805,6.029,0.037,-0.013,-0.01,103.0,102.0,101.0,13.3,1505.2,329.3,-0.8,1.8,2470.661,13.28,0.039,109.4
2022-03-05T05:46:03,42.805,6.029,0.026,-0.014,-0.032,102.0,103.0,101.0,13.4,1505.2,327.5,-0.8,1.8,2470.669,13.28,0.029,118.3
2022-03-05T05:49:03,42.805,6.029,0.038,-0.003,0.014,102.0,102.0,102.0,13.4,1505.2,329.2,-0.7,1.8,2470.638,13.28,0.038,94.5
2022-03-05T05:52:03,42.805,6.029,0.009,0.0,-0.019,102.0,103.0,100.0,13.4,1505.2,330.1,-0.7,1.8,2470.685,13.28,0.009,90.0
2022-03-05T05:55:03,42.805,6.029,-0.002,-0.021,-0.038,103.0,103.0,101.0,13.4,1505.2,322.8,-0.8,1.8,2470.685,13.28,0.021,185.4
2022-03-05T05:58:03,42.805,6.029,0.024,-0.017,0.0,102.0,103.0,100.0,13.4,1505.2,324.8,-0.8,1.8,2470.694,13.28,0.029,125.3
2022-03-05T06:04:02,42.805,6.029,0.012,-0.005,0.004,102.0,103.0,101.0,13.4,1505.2,328.9,-0.8,1.8,2470.764,13.28,0.013,112.6
2022-03-05T06:07:03,42.805,6.029,0.025,0.008,-0.003,103.0,105.0,101.0,13.3,1505.2,329.6,-0.8,1.8,2470.676,13.28,0.026,72.3
2022-03-05T06:10:03,42.805,6.029,0.034,-0.005,-0.037,102.0,104.0,101.0,13.4,1505.2,326.2,-0.8,1.8,2470.744,13.28,0.034,98.4
2022-03-05T06:13:02,42.805,6.029,0.027,0.001,0.015,101.0,104.0,103.0,13.4,1505.2,322.8,-0.8,1.8,2470.722,13.28,0.027,87.9
2022-03-05T06:16:03,42.805,6.029,0.032,-0.009,-0.026,101.0,102.0,102.0,13.4,1505.2,322.8,-0.7,1.8,2470.71,13.28,0.033,105.7
2022-03-05T06:19:03,42.805,6.029,0.029,-0.004,-0.001,102.0,105.0,101.0,13.4,1505.2,325.0,-0.8,1.8,2470.751,13.28,0.029,97.8
2022-03-05T06:22:02,42.805,6.029,0.058,0.006,0.025,103.0,104.0,101.0,13.3,1505.2,326.8,-0.8,1.9,2470.705,13.28,0.058,84.1
2022-03-05T06:25:03,42.805,6.029,0.019,-0.007,-0.011,103.0,104.0,100.0,13.4,1505.2,325.3,-0.8,1.8,2470.703,13.28,0.02,110.2
2022-03-05T06:28:03,42.805,6.029,0.027,-0.017,-0.022,103.0,103.0,100.0,13.4,1505.2,332.0,-0.8,1.8,2470.736,13.28,0.031,122.2
2022-03-05T06:31:02,42.805,6.029,0.001,-0.004,-0.003,101.0,105.0,101.0,13.4,1505.2,327.5,-0.7,1.8,2470.745,13.28,0.004,166.0
2022-03-05T06:34:03,42.805,6.029,0.032,-0.008,0.0,102.0,105.0,101.0,13.4,1505.2,327.6,-0.7,1.8,2470.738,13.28,0.032,104.0
2022-03-05T06:37:02,42.805,6.029,0.037,-0.004,-0.006,104.0,106.0,102.0,13.3,1505.2,329.3,-0.8,1.8,2470.747,13.28,0.037,96.2
2022-03-05T06:40:02,42.805,6.029,0.038,-0.004,0.012,102.0,105.0,101.0,13.4,1505.2,331.6,-0.8,1.8,2470.782,13.28,0.038,96.0
2022-03-05T06:43:02,42.805,6.029,0.032,-0.02,0.0,104.0,104.0,102.0,13.4,1505.2,323.1,-0.8,1.8,2470.775,13.28,0.037,122.0
2022-03-05T06:46:02,42.805,6.029,0.024,0.007,-0.003,102.0,104.0,102.0,13.3,1505.2,331.4,-0.8,1.8,2470.737,13.28,0.025,73.7
2022-03-05T06:49:02,42.805,6.029,0.062,-0.008,-0.009,102.0,105.0,102.0,13.3,1505.2,330.0,-0.7,1.8,2470.756,13.28,0.062,97.3
2022-03-05T06:52:02,42.805,6.029,0.02,0.009,0.0,103.0,105.0,102.0,13.4,1505.2,325.4,-0.8,1.8,2470.793,13.28,0.021,65.8
2022-03-05T06:55:02,42.805,6.029,0.032,-0.002,0.001,102.0,103.0,102.0,13.4,1505.2,325.6,-0.8,1.8,2470.758,13.28,0.032,93.6
2022-03-05T06:58:02,42.805,6.029,0.056,0.0,-0.019,102.0,104.0,102.0,13.4,1505.2,329.0,-0.8,1.8,2470.773,13.28,0.056,90.0
2022-03-05T07:04:02,42.805,6.029,0.042,-0.015,0.014,102.0,106.0,101.0,13.4,1505.2,325.6,-0.8,1.8,2470.826,13.28,0.044,109.6
2022-03-05T07:07:02,42.805,6.029,0.027,0.003,0.013,102.0,104.0,102.0,13.3,1505.2,326.2,-0.7,1.8,2470.825,13.28,0.027,83.7
2022-03-05T07:10:02,42.805,6.029,0.062,0.0,0.018,102.0,105.0,101.0,13.4,1505.2,329.5,-0.8,1.8,2470.808,13.28,0.061,90.0
2022-03-05T07:13:02,42.805,6.029,0.062,-0.022,0.006,102.0,104.0,101.0,13.3,1505.2,332.1,-0.8,1.8,2470.835,13.28,0.065,109.5
2022-03-05T07:16:02,42.805,6.029,0.015,0.001,-0.01,103.0,103.0,101.0,13.4,1505.2,328.8,-0.8,1.8,2470.785,13.28,0.015,86.2
2022-03-05T07:19:02,42.805,6.029,0.041,0.001,0.007,103.0,104.0,102.0,13.4,1505.2,324.9,-0.7,1.8,2470.797,13.28,0.041,88.6
2022-03-05T07:22:02,42.805,6.029,0.04,-0.009,-0.03,102.0,105.0,101.0,13.3,1505.2,328.1,-0.7,1.8,2470.824,13.28,0.041,102.7
2022-03-05T07:25:02,42.805,6.029,0.036,-0.012,-0.024,102.0,104.0,102.0,13.4,1505.2,329.9,-0.7,1.8,2470.829,13.28,0.037,108.4
2022-03-05T07:28:03,42.805,6.029,0.048,0.008,0.025,102.0,104.0,102.0,13.4,1505.2,323.5,-0.7,1.8,2470.758,13.28,0.048,80.5
2022-03-05T07:31:03,42.805,6.029,0.05,0.01,0.001,102.0,105.0,101.0,13.4,1505.2,324.6,-0.8,1.8,2470.828,13.28,0.05,78.7
2022-03-05T07:34:02,42.805,6.029,0.051,0.025,0.034,102.0,105.0,101.0,13.4,1505.2,325.3,-0.7,1.8,2470.828,13.28,0.056,63.9
2022-03-05T07:37:02,42.805,6.029,0.046,0.016,0.031,103.0,105.0,101.0,13.4,1505.2,328.1,-0.7,1.8,2470.791,13.28,0.048,70.8
2022-03-05T07:40:03,42.805,6.029,0.05,-0.015,0.006,102.0,104.0,102.0,13.3,1505.2,326.0,-0.8,1.8,2470.796,13.28,0.052,106.7
2022-03-05T07:43:03,42.805,6.029,0.055,0.0,0.013,102.0,105.0,101.0,13.4,1505.2,328.8,-0.8,1.8,2470.817,13.28,0.055,90.0
2022-03-05T07:46:03,42.805,6.029,0.025,-0.001,-0.013,103.0,106.0,101.0,13.4,1505.2,325.8,-0.7,1.8,2470.801,13.28,0.025,92.3
2022-03-05T07:49:02,42.805,6.029,0.061,-0.019,0.029,102.0,105.0,101.0,13.4,1505.2,330.9,-0.8,1.8,2470.795,13.28,0.063,107.3
2022-03-05T07:52:02,42.805,6.029,0.026,-0.006,0.001,102.0,105.0,101.0,13.4,1505.2,325.3,-0.8,1.8,2470.771,13.28,0.026,103.0
2022-03-05T07:55:03,42.805,6.029,0.041,-0.002,-0.016,101.0,104.0,102.0,13.3,1505.2,328.0,-0.7,1.8,2470.83,13.28,0.041,92.8
2022-03-05T07:58:03,42.805,6.029,0.022,0.004,-0.003,102.0,105.0,101.0,13.4,1505.2,325.4,-0.7,1.8,2470.827,13.28,0.022,79.7
2022-03-05T08:04:02,42.805,6.029,0.056,-0.012,-0.002,103.0,104.0,101.0,13.4,1505.2,327.9,-0.8,1.8,2470.842,13.28,0.057,102.1
2022-03-05T08:07:02,42.805,6.029,0.057,0.017,0.02,102.0,105.0,101.0,13.3,1505.2,326.7,-0.7,1.8,2470.834,13.28,0.059,73.4
2022-03-05T08:10:03,42.805,6.029,0.034,0.016,0.04,102.0,104.0,101.0,13.4,1505.2,324.6,-0.8,1.8,2470.823,13.28,0.037,64.8
2022-03-05T08:13:03,42.805,6.029,0.054,0.001,0.047,101.0,105.0,101.0,13.3,1505.2,329.3,-0.8,1.8,2470.839,13.28,0.054,88.9
2022-03-05T08:16:03,42.805,6.029,0.033,0.006,-0.002,102.0,105.0,102.0,13.3,1505.2,326.7,-0.8,1.8,2470.804,13.28,0.033,79.7
2022-03-05T08:19:03,42.805,6.029,0.053,0.003,-0.004,103.0,104.0,101.0,13.3,1505.2,327.1,-0.7,1.8,2470.851,13.28,0.053,86.8
2022-03-05T08:22:02,42.805,6.029,0.028,-0.006,0.003,102.0,105.0,100.0,13.4,1505.2,326.8,-0.7,1.9,2470.835,13.28,0.028,102.1
2022-03-05T08:25:03,42.805,6.029,0.052,0.002,0.026,103.0,105.0,100.0,13.4,1505.2,328.5,-0.8,1.8,2470.864,13.28,0.052,87.8
2022-03-05T08:28:03,42.805,6.029,0.037,-0.009,-0.012,104.0,104.0,101.0,13.4,1505.2,331.0,-0.7,1.8,2470.845,13.28,0.038,103.7
2022-03-05T08:31:03,42.805,6.029,0.034,0.013,0.0,102.0,104.0,101.0,13.4,1505.2,323.8,-0.8,1.8,2470.806,13.28,0.036,69.1
2022-03-05T08:34:03,42.805,6.029,0.046,0.024,0.013,101.0,104.0,102.0,13.4,1505.2,329.3,-0.8,1.8,2470.843,13.28,0.051,62.4
2022-03-05T08:37:02,42.805,6.029,0.041,0.008,-0.009,102.0,104.0,101.0,13.4,1505.2,329.2,-0.7,1.8,2470.821,13.28,0.041,79.0
2022-03-05T08:40:03,42.805,6.029,0.044,0.006,0.017,102.0,106.0,101.0,13.4,1505.2,327.8,-0.8,1.8,2470.878,13.28,0.044,82.2
2022-03-05T08:43:03,42.805,6.029,0.069,0.017,0.025,102.0,105.0,102.0,13.4,1505.2,324.8,-0.7,1.8,2470.838,13.28,0.071,76.2
2022-03-05T08:46:03,42.805,6.029,0.035,-0.002,-0.015,102.0,105.0,101.0,13.4,1505.2,323.1,-0.8,1.8,2470.858,13.28,0.035,93.3
2022-03-05T08:49:03,42.805,6.029,0.057,-0.01,0.043,101.0,105.0,101.0,13.4,1505.2,326.9,-0.8,1.8,2470.824,13.28,0.057,99.9
2022-03-05T08:52:02,42.805,6.029,0.043,-0.007,0.004,102.0,105.0,101.0,13.4,1505.2,332.3,-0.8,1.8,2470.84,13.28,0.043,99.2
2022-03-05T08:55:03,42.805,6.029,0.021,-0.006,-0.023,102.0,104.0,101.0,13.3,1505.2,330.6,-0.7,1.8,2470.834,13.28,0.021,105.9
2022-03-05T08:58:03,42.805,6.029,0.056,-0.019,-0.006,102.0,105.0,101.0,13.4,1505.2,325.6,-0.7,1.8,2470.833,13.28,0.059,108.7
2022-03-05T09:04:02,42.805,6.029,0.009,-0.001,0.015,103.0,104.0,101.0,13.4,1505.2,329.8,-0.7,1.8,2470.869,13.28,0.009,96.3
2022-03-05T09:07:02,42.805,6.029,0.019,-0.009,-0.02,102.0,104.0,101.0,13.4,1505.2,331.0,-0.7,1.8,2470.86,13.28,0.021,115.3
2022-03-05T09:10:03,42.805,6.029,0.046,0.015,0.022,102.0,105.0,101.0,13.4,1505.2,324.5,-0.7,1.8,2470.851,13.28,0.048,71.9
2022-03-05T09:13:03,42.805,6.029,0.043,-0.008,-0.014,103.0,105.0,102.0,13.4,1505.2,329.2,-0.8,1.8,2470.855,13.28,0.043,100.5
2022-03-05T09:16:03,42.805,6.029,0.059,0.003,0.0,102.0,105.0,101.0,13.4,1505.2,324.0,-0.7,1.8,2470.839,13.28,0.059,87.1
2022-03-05T09:19:03,42.805,6.029,0.058,-0.007,0.015,103.0,105.0,101.0,13.3,1505.2,327.8,-0.8,1.8,2470.796,13.28,0.058,96.9
2022-03-05T09:22:02,42.805,6.029,0.046,-0.002,0.02,102.0,105.0,101.0,13.4,1505.2,329.1,-0.8,1.8,2470.8,13.28,0.046,92.5
2022-03-05T09:25:03,42.805,6.029,0.034,-0.004,0.005,102.0,105.0,101.0,13.4,1505.2,327.6,-0.7,1.8,2470.843,13.28,0.034,96.7
2022-03-05T09:28:03,42.805,6.029,0.049,0.009,-0.021,102.0,104.0,101.0,13.4,1505.2,326.1,-0.8,1.8,2470.855,13.28,0.049,79.6
2022-03-05T09:31:03,42.805,6.029,0.041,-0.016,0.0,102.0,105.0,101.0,13.3,1505.2,327.9,-0.8,1.8,2470.837,13.28,0.044,111.3
2022-03-05T09:34:03,42.805,6.029,0.036,0.008,0.001,102.0,105.0,102.0,13.3,1505.2,330.4,-0.8,1.9,2470.844,13.28,0.036,77.5
2022-03-05T09:37:02,42.805,6.029,0.035,-0.009,-0.012,102.0,104.0,102.0,13.4,1505.2,325.3,-0.8,1.8,2470.862,13.28,0.036,104.4
2022-03-05T09:40:03,42.805,6.029,0.035,-0.008,0.006,101.0,104.0,101.0,13.4,1505.2,328.3,-0.7,1.8,2470.822,13.28,0.035,102.9
2022-03-05T09:43:03,42.805,6.029,0.039,-0.008,0.019,102.0,105.0,101.0,13.4,1505.2,329.4,-0.8,1.8,2470.848,13.28,0.039,101.6
2022-03-05T09:46:03,42.805,6.029,0.029,-0.005,0.016,103.0,105.0,102.0,13.3,1505.2,324.4,-0.8,1.8,2470.811,13.28,0.029,99.8
2022-03-05T09:49:03,42.805,6.029,0.024,-0.003,-0.001,101.0,104.0,102.0,13.4,1505.2,327.4,-0.8,1.8,2470.838,13.28,0.024,97.1
2022-03-05T09:52:02,42.805,6.029,0.031,-0.018,-0.037,102.0,106.0,100.0,13.4,1505.2,330.2,-0.8,1.8,2470.872,13.28,0.035,120.1
2022-03-05T09:55:03,42.805,6.029,0.045,-0.002,-0.002,102.0,105.0,101.0,13.3,1505.2,323.5,-0.8,1.8,2470.806,13.28,0.045,92.5
2022-03-05T09:58:03,42.805,6.029,0.03,0.005,-0.008,102.0,104.0,101.0,13.3,1505.2,326.3,-0.8,1.9,2470.786,13.28,0.03,80.5